OZ1IEP-5 Weather Reports


Display with metric or nautical units.
time (UTC)temp
F
wind
direction
speed
MPH
gust
MPH
rain 1hr
in
rain 24hr
in
rain mn
in
humidity
%
barometer
mb
20260510023008 43 118 2.0 7.0 0.00 0.00 0.00 87 1014.9
20260510022006 43 115 2.0 7.0 0.00 0.00 0.00 87 1015.1
20260510021006 43 118 3.0 6.0 0.00 0.00 0.00 86 1015.1
20260510020009 44 119 1.0 7.0 0.00 0.00 0.00 86 1015.2
20260510015006 44 117 4.0 9.0 0.00 0.00 0.00 85 1015.2
20260510014006 43 116 3.0 9.0 0.00 0.00 0.00 84 1015.2
20260510013008 43 111 2.0 5.0 0.00 0.00 0.00 84 1015.5
20260510012006 43 113 3.0 7.0 0.00 0.00 0.00 84 1015.6
20260510011006 43 110 2.0 7.0 0.00 0.00 0.00 85 1015.6
20260510010009 42 104 2.0 7.0 0.00 0.00 0.00 85 1015.7
20260510005006 42 99 2.0 5.0 0.00 0.00 0.00 85 1016.0
20260510004006 42 104 1.0 6.0 0.00 0.00 0.00 85 1016.2
20260510003009 42 103 1.0 3.0 0.00 0.00 0.00 85 1016.4
20260510002006 42 95 0.0 3.0 0.00 0.00 0.00 85 1016.7
20260510001006 41 103 0.0 3.0 0.00 0.00 0.00 84 1016.8
20260510000008 41 98 0.0 2.0 0.00 0.00 0.00 83 1016.9
20260509235006 41 115 0.0 1.0 0.00 0.00 0.00 82 1017.0
20260509234006 42 116 0.0 0.0 0.00 0.00 0.00 80 1017.2
20260509233008 42 132 0.0 0.0 0.00 0.00 0.00 80 1017.3
20260509232005 42 134 0.0 1.0 0.00 0.00 0.00 80 1017.3
20260509231005 42 134 0.0 1.0 0.00 0.00 0.00 80 1017.5
20260509230008 42 134 0.0 0.0 0.00 0.00 0.00 81 1017.7
20260509225006 42 134 0.0 0.0 0.00 0.00 0.00 80 1017.8
20260509224005 43 134 0.0 0.0 0.00 0.00 0.00 79 1017.8
20260509223008 43 134 0.0 0.0 0.00 0.00 0.00 79 1017.8
20260509222006 43 134 0.0 0.0 0.00 0.00 0.00 78 1017.8
20260509221006 44 134 0.0 0.0 0.00 0.00 0.00 77 1017.8
20260509220009 44 134 0.0 0.0 0.00 0.00 0.00 77 1017.9
20260509215006 44 134 0.0 0.0 0.00 0.00 0.00 76 1017.9
20260509214006 45 134 0.0 0.0 0.00 0.00 0.00 77 1018.1
20260509213008 45 134 0.0 0.0 0.00 0.00 0.00 77 1018.1
20260509212006 45 134 0.0 1.0 0.00 0.00 0.00 77 1018.1
20260509211006 46 134 0.0 1.0 0.00 0.00 0.00 76 1018.1
20260509210008 46 134 0.0 1.0 0.00 0.00 0.00 75 1018.2
20260509205005 46 134 0.0 1.0 0.00 0.00 0.00 74 1018.3
20260509204006 47 134 0.0 2.0 0.00 0.00 0.00 74 1018.3
20260509203008 47 133 0.0 3.0 0.00 0.00 0.00 74 1018.3
20260509202006 48 129 0.0 3.0 0.00 0.00 0.00 73 1018.3
20260509201005 48 120 0.0 3.0 0.00 0.00 0.00 71 1018.3
20260509200008 49 134 1.0 3.0 0.00 0.00 0.00 70 1018.4
20260509195006 49 139 0.0 5.0 0.00 0.00 0.00 68 1018.4
20260509194005 49 123 1.0 6.0 0.00 0.00 0.00 66 1018.3
20260509193008 50 130 1.0 6.0 0.00 0.00 0.00 63 1018.3
20260509192005 51 139 3.0 7.0 0.00 0.00 0.00 61 1018.3
20260509191006 51 136 2.0 10.0 0.00 0.00 0.00 60 1018.3
20260509190019 52 135 3.0 10.0 0.00 0.00 0.00 59 1018.2
20260509185005 53 130 2.0 7.0 0.00 0.00 0.00 58 1018.1
20260509184006 53 127 2.0 8.0 0.00 0.00 0.00 56 1017.9
20260509183008 54 128 4.0 12.0 0.00 0.00 0.00 53 1017.9
20260509182006 55 125 2.0 12.0 0.00 0.00 0.00 50 1017.9
20260509181006 56 146 5.0 13.0 0.00 0.00 0.00 46 1017.9
20260509180009 56 144 3.0 12.0 0.00 0.00 0.00 45 1018.0
20260509175008 57 140 5.0 12.0 0.00 0.00 0.00 44 1018.0
20260509174006 57 151 4.0 12.0 0.00 0.00 0.00 43 1018.0
20260509173008 57 134 5.0 12.0 0.00 0.00 0.00 42 1018.1
20260509172006 57 142 2.0 12.0 0.00 0.00 0.00 43 1018.2
20260509171006 57 149 5.0 13.0 0.00 0.00 0.00 43 1018.2
20260509170009 57 151 8.0 15.0 0.00 0.00 0.00 41 1018.2
20260509165006 57 150 7.0 12.0 0.00 0.00 0.00 42 1018.3
20260509164005 58 146 6.0 15.0 0.00 0.00 0.00 41 1018.3
20260509163009 58 132 7.0 15.0 0.00 0.00 0.00 41 1018.3
20260509162006 58 119 9.0 16.0 0.00 0.00 0.00 40 1018.3
20260509161005 59 152 6.0 14.0 0.00 0.00 0.00 41 1018.4
20260509160008 59 133 2.0 13.0 0.00 0.00 0.00 42 1018.5
20260509155006 60 133 7.0 13.0 0.00 0.00 0.00 39 1018.8
20260509154006 60 147 8.0 15.0 0.00 0.00 0.00 38 1018.8
20260509153009 61 143 8.0 13.0 0.00 0.00 0.00 39 1019.0
20260509152006 61 138 3.0 15.0 0.00 0.00 0.00 39 1018.9
20260509151006 61 129 5.0 13.0 0.00 0.00 0.00 39 1019.0
20260509150008 62 129 8.0 14.0 0.00 0.00 0.00 36 1019.3
20260509145005 62 128 4.0 14.0 0.00 0.00 0.00 37 1019.3
20260509144006 63 130 7.0 14.0 0.00 0.00 0.00 37 1019.3
20260509143009 63 142 9.0 13.0 0.00 0.00 0.00 36 1019.3
20260509142006 64 156 6.0 12.0 0.00 0.00 0.00 36 1019.4
20260509141006 64 144 8.0 12.0 0.00 0.00 0.00 37 1019.5
20260509140008 64 123 6.0 12.0 0.00 0.00 0.00 34 1019.7
20260509135006 64 166 6.0 14.0 0.00 0.00 0.00 35 1019.8
20260509134005 64 144 3.0 17.0 0.00 0.00 0.00 34 1019.9
20260509133008 64 139 5.0 13.0 0.00 0.00 0.00 34 1020.0
20260509132006 64 124 4.0 13.0 0.00 0.00 0.00 33 1020.2
20260509131006 64 73 2.0 14.0 0.00 0.00 0.00 35 1020.3
20260509130008 64 161 2.0 14.0 0.00 0.00 0.00 34 1020.4
20260509125006 64 175 7.0 12.0 0.00 0.00 0.00 36 1020.4
20260509124006 64 142 5.0 12.0 0.00 0.00 0.00 36 1020.4
20260509123009 63 187 2.0 7.0 0.00 0.00 0.00 36 1020.5
20260509122006 63 184 6.0 14.0 0.00 0.00 0.00 36 1020.7
20260509121005 63 207 1.0 7.0 0.00 0.00 0.00 38 1020.8
20260509120008 64 337 2.0 7.0 0.00 0.00 0.00 36 1020.9
20260509115006 63 151 3.0 10.0 0.00 0.00 0.00 35 1021.0
20260509114006 63 126 2.0 7.0 0.00 0.00 0.00 34 1021.0
20260509113009 62 154 5.0 8.0 0.00 0.00 0.00 38 1021.0
20260509112006 62 92 1.0 5.0 0.00 0.00 0.00 35 1021.1
20260509111006 62 170 0.0 8.0 0.00 0.00 0.00 35 1021.2
20260509110008 61 110 1.0 5.0 0.00 0.00 0.00 35 1021.3
20260509105006 60 140 2.0 5.0 0.00 0.00 0.00 36 1021.4
20260509104005 61 54 2.0 12.0 0.00 0.00 0.00 34 1021.4
20260509103009 60 82 0.0 5.0 0.00 0.00 0.00 34 1021.5
20260509102006 61 71 0.0 5.0 0.00 0.00 0.00 31 1021.5
20260509101006 61 153 1.0 10.0 0.00 0.00 0.00 35 1021.5
20260509100009 61 156 2.0 6.0 0.00 0.00 0.00 34 1021.5
20260509095006 60 155 1.0 6.0 0.00 0.00 0.00 35 1021.5
20260509094007 60 171 1.0 7.0 0.00 0.00 0.00 33 1021.4
20260509093008 59 141 1.0 10.0 0.00 0.00 0.00 31 1021.5
20260509092006 59 120 1.0 6.0 0.00 0.00 0.00 32 1021.5
20260509091005 58 144 4.0 10.0 0.00 0.00 0.00 32 1021.5
20260509090008 58 139 4.0 10.0 0.00 0.00 0.00 32 1021.6
20260509085006 57 108 0.0 3.0 0.00 0.00 0.00 33 1021.6
20260509084006 56 92 1.0 6.0 0.00 0.00 0.00 35 1021.8
20260509083009 55 90 2.0 12.0 0.00 0.00 0.00 36 1021.7
20260509082007 54 112 5.0 13.0 0.00 0.00 0.00 37 1021.9
20260509081006 54 62 1.0 3.0 0.00 0.00 0.00 40 1021.9
20260509080009 53 98 0.0 7.0 0.00 0.00 0.00 42 1021.9
20260509075006 53 131 2.0 9.0 0.00 0.00 0.00 44 1021.9
20260509074007 52 83 1.0 7.0 0.00 0.00 0.00 45 1022.0
20260509073011 51 121 1.0 7.0 0.00 0.00 0.00 46 1022.0
20260509072006 51 106 2.0 7.0 0.00 0.00 0.00 48 1022.0
20260509071007 50 116 3.0 9.0 0.00 0.00 0.00 49 1022.0
20260509070010 50 115 3.0 7.0 0.00 0.00 0.00 51 1022.1
20260509065007 49 75 0.0 3.0 0.00 0.00 0.00 55 1022.1
20260509064006 49 39 0.0 3.0 0.00 0.00 0.00 55 1022.1
20260509063009 48 124 1.0 5.0 0.00 0.00 0.00 57 1022.1
20260509062008 47 60 0.0 5.0 0.00 0.00 0.00 60 1022.0
20260509061006 47 62 0.0 3.0 0.00 0.00 0.00 63 1022.0
20260509060008 46 62 0.0 5.0 0.00 0.00 0.00 63 1022.1
20260509055005 45 68 0.0 2.0 0.00 0.00 0.00 67 1022.2
20260509054006 44 124 0.0 2.0 0.00 0.00 0.00 71 1022.1
20260509053008 44 118 1.0 3.0 0.00 0.00 0.00 74 1022.2
20260509052006 43 97 1.0 3.0 0.00 0.00 0.00 75 1022.2
20260509051006 43 88 0.0 0.0 0.00 0.00 0.00 76 1022.2
20260509050008 42 87 0.0 1.0 0.00 0.00 0.00 77 1022.2
20260509045006 42 95 0.0 1.0 0.00 0.00 0.00 79 1022.2
20260509044005 40 68 0.0 0.0 0.00 0.00 0.00 81 1022.2
20260509043009 39 68 0.0 0.0 0.00 0.00 0.00 81 1022.1
20260509042006 38 68 0.0 1.0 0.00 0.00 0.00 80 1022.2
20260509041006 38 68 0.0 0.0 0.00 0.00 0.00 80 1022.1
20260509040008 38 68 0.0 1.0 0.00 0.00 0.00 79 1022.1
20260509035006 37 73 0.0 1.0 0.00 0.00 0.00 79 1022.2
20260509034006 37 72 0.0 0.0 0.00 0.00 0.00 79 1022.2
20260509033008 37 78 0.0 0.0 0.00 0.00 0.00 78 1022.3
20260509032005 37 79 0.0 1.0 0.00 0.00 0.00 76 1022.4
20260509031006 37 79 0.0 1.0 0.00 0.00 0.00 75 1022.5
20260509030008 37 79 0.0 1.0 0.00 0.00 0.00 75 1022.4
20260509025005 37 81 0.0 0.0 0.00 0.00 0.00 75 1022.5
20260509024006 37 81 0.0 0.0 0.00 0.00 0.00 75 1022.4